Regional Weather Roundup
Issued by NWS Sioux Falls, SD

Home | Current Version | Previous Version | Text Only | Print | Product List | Glossary Off
Versions: 1 2 3 4 5 6 7 8 9 10 11 12 13 14 15 16 17 18 19 20 21 22 23 24 25 26 27 28 29 30 31 32 33 34 35 36 37 38 39 40 41 42 43 44 45 46 47 48 49 50

000
ASUS43 KFSD 110702
RWRFSD

WEATHER ROUNDUP FOR SE SOUTH DAKOTA/SW MINNESOTA/NW IOWA
NATIONAL WEATHER SERVICE SIOUX FALLS SD
200 AM CDT FRI JUL 11 2014

NOTE: "FAIR" INDICATES FEW OR NO CLOUDS BELOW 12,000 FEET WITH NO
SIGNIFICANT WEATHER AND OR OBSTRUCTIONS TO VISIBILITY.


SDZ038>040-050-052>070-110800-
SOUTHEAST SOUTH DAKOTA

CITY           SKY/WX    TMP DP  RH WIND       PRES   REMARKS
CHAMBERLAIN    CLOUDY    71  69  95 SE12      29.85S
HURON          PTCLDY    73  67  81 S15G23    29.83F
MADISON        CLOUDY    72  72 100 SW17      29.95R
MITCHELL       TSTM      72  71  97 S20G30    29.89F
SIOUX FALLS    RAIN      73  67  81 S18G30    29.94R
WINNER         FAIR      73  64  73 VRB7G17   29.87R
YANKTON        CLOUDY    72  66  83 SE5       29.96S
$$

MNZ071-072-080-081-089-090-097-098-110800-
SOUTHWEST MINNESOTA

CITY           SKY/WX    TMP DP  RH WIND       PRES   REMARKS
FAIRMONT       CLOUDY    72  57  60 S15       30.02R
JACKSON        CLOUDY    72  57  60 S17G25    30.00F
LUVERNE        CLOUDY    72  64  78 S14       29.98R THUNDER
MARSHALL       MOCLDY    73  64  73 S22G32    29.90F
MONTEVIDEO     CLOUDY    73  66  78 SW13G18   29.90F
PIPESTONE      CLOUDY    72  64  78 S17G24    29.96R
REDWOOD FALLS  MOCLDY    74  61  63 S20       29.93F
TRACY          CLOUDY    73  64  72 S15G22    29.95S
WINDOM         CLOUDY    73  61  64 S15G21    29.99R
WORTHINGTON    CLOUDY    70  63  78 S15G23    30.00R
$$

IAZ001>003-012>014-020>022-031-032-NEZ013-014-SDZ071-110800-
NORTHWEST IOWA

CITY           SKY/WX    TMP DP  RH WIND       PRES   REMARKS
CHEROKEE       CLOUDY    70  64  82 S10       29.99S
DENISON        PTCLDY    70  63  78 S10G18    29.98F
ESTHERVILLE    CLOUDY    70  59  68 S17       30.02R
LE MARS        CLOUDY    73  66  78 SW9G16    30.00R
ORANGE CITY    CLOUDY    73  63  68 S9        30.01R
SHELDON        CLOUDY    70  64  83 S12       29.99R
SIOUX CITY     PTCLDY    72  66  81 SE7       29.98R
SPENCER        CLOUDY    70  60  70 S12       30.01R
STORM LAKE     MOCLDY    66  63  88 S12       30.01F
$$

ABBREVIATIONS USED IN REMARKS
   TC - TEMPERATURE IN CELSIUS
  WCI - WIND CHILL INDEX
   HX - HEAT INDEX
  VSB - VISIBILITY



USA.gov is the U.S. government's official web portal to all federal, state and local government web resources and services.